Time,TemperatureF,DewpointF,PressureIn,WindDirection,WindDirectionDegrees,WindSpeedMPH,WindSpeedGustMPH,Humidity,HourlyPrecipIn,Conditions,Clouds,dailyrainin,SoftwareType,DateUTC
2013-06-07 00:00:00,51.2,50.1,30.11,NE,39,0.0,0.0,96,0.00,,,0.00,Wunderground v.1.15,2013-06-07 04:00:00,
2013-06-07 00:05:00,51.2,50.1,30.11,NE,39,0.0,0.0,96,0.00,,,0.00,Wunderground v.1.15,2013-06-07 04:05:00,
2013-06-07 00:10:00,51.1,50.0,30.10,NE,39,0.0,0.0,96,0.00,,,0.00,Wunderground v.1.15,2013-06-07 04:10:00,
2013-06-07 00:15:00,51.1,50.0,30.10,NE,38,0.0,0.0,96,0.00,,,0.00,Wunderground v.1.15,2013-06-07 04:15:00,
2013-06-07 00:20:00,51.1,50.0,30.10,NE,38,0.0,0.0,96,0.00,,,0.00,Wunderground v.1.15,2013-06-07 04:20:00,
2013-06-07 00:25:00,51.0,49.9,30.10,NE,38,0.0,0.0,96,0.00,,,0.00,Wunderground v.1.15,2013-06-07 04:25:00,
2013-06-07 00:30:00,51.0,49.9,30.10,NE,38,0.0,0.0,96,0.00,,,0.00,Wunderground v.1.15,2013-06-07 04:30:00,
2013-06-07 00:40:00,51.0,49.9,30.10,NE,38,0.0,0.0,96,0.00,,,0.00,Wunderground v.1.15,2013-06-07 04:40:00,
2013-06-07 00:45:00,51.0,49.9,30.10,NE,38,0.0,0.0,96,0.00,,,0.00,Wunderground v.1.15,2013-06-07 04:45:00,
2013-06-07 00:50:00,50.9,49.8,30.09,NE,38,0.0,0.0,96,0.00,,,0.01,Wunderground v.1.15,2013-06-07 04:50:00,
2013-06-07 01:00:00,50.9,49.8,30.09,NE,38,0.0,0.0,96,0.00,,,0.01,Wunderground v.1.15,2013-06-07 05:00:00,
2013-06-07 01:05:00,50.9,49.8,30.10,NE,38,0.0,0.0,96,0.00,,,0.01,Wunderground v.1.15,2013-06-07 05:05:00,
2013-06-07 01:10:00,50.9,49.8,30.09,NE,38,0.0,0.0,96,0.00,,,0.02,Wunderground v.1.15,2013-06-07 05:10:00,
2013-06-07 01:15:00,50.9,49.8,30.09,NE,38,0.0,0.0,96,0.00,,,0.02,Wunderground v.1.15,2013-06-07 05:15:00,
2013-06-07 01:20:00,50.9,49.8,30.09,NE,38,0.0,0.0,96,0.00,,,0.02,Wunderground v.1.15,2013-06-07 05:20:00,
2013-06-07 01:30:00,50.8,49.7,30.09,NE,38,0.0,0.0,96,0.00,,,0.02,Wunderground v.1.15,2013-06-07 05:30:00,
2013-06-07 01:35:00,50.8,49.7,30.08,NE,38,0.0,0.0,96,0.00,,,0.02,Wunderground v.1.15,2013-06-07 05:35:00,
2013-06-07 01:41:00,50.8,50.0,30.08,NE,38,0.0,0.0,97,0.00,,,0.03,Wunderground v.1.15,2013-06-07 05:41:00,
2013-06-07 01:45:00,50.7,49.9,30.08,NE,38,0.0,0.0,97,0.00,,,0.03,Wunderground v.1.15,2013-06-07 05:45:00,
2013-06-07 01:50:00,50.7,49.9,30.08,NE,38,0.0,0.0,97,0.00,,,0.03,Wunderground v.1.15,2013-06-07 05:50:00,
2013-06-07 01:55:00,50.7,49.9,30.08,NE,38,0.0,0.0,97,0.00,,,0.03,Wunderground v.1.15,2013-06-07 05:55:00,
2013-06-07 02:00:00,50.7,49.9,30.08,NE,38,0.0,0.0,97,0.00,,,0.04,Wunderground v.1.15,2013-06-07 06:00:00,
2013-06-07 02:05:00,50.6,49.5,30.08,NE,38,0.0,0.0,96,0.00,,,0.04,Wunderground v.1.15,2013-06-07 06:05:00,
2013-06-07 02:10:00,50.7,49.9,30.08,NE,38,0.0,0.0,97,0.00,,,0.04,Wunderground v.1.15,2013-06-07 06:10:00,
2013-06-07 02:15:00,50.7,49.9,30.07,NE,39,0.0,0.0,97,0.00,,,0.04,Wunderground v.1.15,2013-06-07 06:15:00,
2013-06-07 02:25:00,50.9,50.1,30.07,NE,56,0.0,0.0,97,0.00,,,0.05,Wunderground v.1.15,2013-06-07 06:25:00,
2013-06-07 02:30:00,51.0,50.2,30.07,NE,56,0.0,0.0,97,0.00,,,0.05,Wunderground v.1.15,2013-06-07 06:30:00,
2013-06-07 02:35:00,51.0,50.2,30.06,NE,56,0.0,2.0,97,0.00,,,0.05,Wunderground v.1.15,2013-06-07 06:35:00,
2013-06-07 02:41:00,51.1,50.3,30.06,ENE,57,1.0,2.0,97,0.00,,,0.05,Wunderground v.1.15,2013-06-07 06:41:00,
2013-06-07 02:45:00,51.1,50.3,30.06,ENE,57,1.0,1.0,97,0.00,,,0.06,Wunderground v.1.15,2013-06-07 06:45:00,
2013-06-07 02:50:00,51.1,50.3,30.06,ENE,57,0.0,1.0,97,0.00,,,0.06,Wunderground v.1.15,2013-06-07 06:50:00,
2013-06-07 02:55:00,51.1,50.3,30.06,ENE,57,0.0,0.0,97,0.00,,,0.06,Wunderground v.1.15,2013-06-07 06:55:00,
2013-06-07 03:00:00,51.1,50.3,30.06,ENE,57,0.0,0.0,97,0.00,,,0.06,Wunderground v.1.15,2013-06-07 07:00:00,
2013-06-07 03:05:00,51.1,50.3,30.06,NE,56,0.0,0.0,97,0.00,,,0.06,Wunderground v.1.15,2013-06-07 07:05:00,
2013-06-07 03:10:00,51.1,50.3,30.06,ENE,57,0.0,0.0,97,0.00,,,0.07,Wunderground v.1.15,2013-06-07 07:10:00,
2013-06-07 03:15:00,51.0,50.2,30.05,ENE,57,0.0,0.0,97,0.00,,,0.07,Wunderground v.1.15,2013-06-07 07:15:00,
2013-06-07 03:20:00,51.0,50.2,30.05,NE,56,0.0,1.0,97,0.00,,,0.07,Wunderground v.1.15,2013-06-07 07:20:00,
2013-06-07 03:25:00,51.0,50.2,30.05,NE,56,0.0,1.0,97,0.00,,,0.07,Wunderground v.1.15,2013-06-07 07:25:00,
2013-06-07 03:30:00,51.0,50.2,30.05,ENE,57,0.0,0.0,97,0.00,,,0.07,Wunderground v.1.15,2013-06-07 07:30:00,
2013-06-07 03:35:00,51.0,50.2,30.05,ENE,57,0.0,1.0,97,0.00,,,0.08,Wunderground v.1.15,2013-06-07 07:35:00,
2013-06-07 03:40:00,51.0,50.2,30.05,ENE,57,0.0,0.0,97,0.00,,,0.08,Wunderground v.1.15,2013-06-07 07:40:00,
2013-06-07 03:45:00,51.0,50.2,30.06,NE,56,0.0,2.0,97,0.00,,,0.08,Wunderground v.1.15,2013-06-07 07:45:00,
2013-06-07 03:50:00,51.1,50.3,30.05,ENE,59,0.0,0.0,97,0.04,,,0.09,Wunderground v.1.15,2013-06-07 07:50:00,
2013-06-07 03:55:00,51.1,50.3,30.05,ENE,59,0.0,0.0,97,0.04,,,0.09,Wunderground v.1.15,2013-06-07 07:55:00,
2013-06-07 04:00:00,51.0,50.2,30.05,ENE,62,0.0,1.0,97,0.04,,,0.09,Wunderground v.1.15,2013-06-07 08:00:00,
2013-06-07 04:05:00,51.1,50.3,30.05,ENE,62,0.0,1.0,97,0.00,,,0.10,Wunderground v.1.15,2013-06-07 08:05:00,
2013-06-07 04:11:00,51.1,50.3,30.05,ENE,62,0.0,0.0,97,0.00,,,0.10,Wunderground v.1.15,2013-06-07 08:11:00,
2013-06-07 04:15:00,51.1,50.3,30.05,East,99,0.0,0.0,97,0.00,,,0.10,Wunderground v.1.15,2013-06-07 08:15:00,
2013-06-07 04:20:00,51.1,50.3,30.05,SE,132,1.0,1.0,97,0.05,,,0.11,Wunderground v.1.15,2013-06-07 08:20:00,
2013-06-07 04:25:00,51.1,50.3,30.05,SE,132,1.0,1.0,97,0.05,,,0.11,Wunderground v.1.15,2013-06-07 08:25:00,
2013-06-07 04:30:00,51.1,50.3,30.05,SE,132,0.0,0.0,97,0.05,,,0.12,Wunderground v.1.15,2013-06-07 08:30:00,
2013-06-07 04:35:00,51.0,50.2,30.05,ESE,115,0.0,0.0,97,0.05,,,0.12,Wunderground v.1.15,2013-06-07 08:35:00,
2013-06-07 04:40:00,51.0,50.2,30.05,ESE,119,1.0,1.0,97,0.06,,,0.13,Wunderground v.1.15,2013-06-07 08:40:00,
2013-06-07 04:45:00,51.0,50.2,30.05,ESE,120,1.0,1.0,97,0.06,,,0.13,Wunderground v.1.15,2013-06-07 08:45:00,
2013-06-07 04:50:00,50.9,50.1,30.05,SE,125,1.0,2.0,97,0.06,,,0.14,Wunderground v.1.15,2013-06-07 08:50:00,
2013-06-07 04:55:00,50.8,50.0,30.05,SE,129,1.0,2.0,97,0.09,,,0.15,Wunderground v.1.15,2013-06-07 08:55:00,
2013-06-07 05:01:00,50.7,49.9,30.04,SE,128,1.0,1.0,97,0.17,,,0.16,Wunderground v.1.15,2013-06-07 09:01:00,
2013-06-07 05:05:00,50.6,49.8,30.05,SE,136,1.0,1.0,97,0.09,,,0.16,Wunderground v.1.15,2013-06-07 09:05:00,
2013-06-07 05:10:00,50.5,49.7,30.05,SE,144,0.0,1.0,97,0.08,,,0.17,Wunderground v.1.15,2013-06-07 09:10:00,
2013-06-07 05:15:00,50.5,49.7,30.05,SE,142,1.0,2.0,97,0.08,,,0.18,Wunderground v.1.15,2013-06-07 09:15:00,
2013-06-07 05:20:00,50.5,49.7,30.05,SE,142,1.0,1.0,97,0.08,,,0.18,Wunderground v.1.15,2013-06-07 09:20:00,
2013-06-07 05:25:00,50.5,49.7,30.06,SE,143,2.0,3.0,97,0.06,,,0.19,Wunderground v.1.15,2013-06-07 09:25:00,
2013-06-07 05:30:00,50.5,49.7,30.06,SSE,148,3.0,3.0,97,0.06,,,0.19,Wunderground v.1.15,2013-06-07 09:30:00,
2013-06-07 05:35:00,50.5,49.4,30.06,SE,146,2.0,3.0,96,0.07,,,0.20,Wunderground v.1.15,2013-06-07 09:35:00,
2013-06-07 05:40:00,50.5,49.4,30.06,SE,138,1.0,1.0,96,0.06,,,0.20,Wunderground v.1.15,2013-06-07 09:40:00,
2013-06-07 05:45:00,50.5,49.4,30.06,SE,134,1.0,1.0,96,0.06,,,0.21,Wunderground v.1.15,2013-06-07 09:45:00,
2013-06-07 05:50:00,50.5,49.4,30.06,SE,134,1.0,1.0,96,0.06,,,0.21,Wunderground v.1.15,2013-06-07 09:50:00,
2013-06-07 05:55:00,50.5,49.4,30.06,SE,128,1.0,1.0,96,0.05,,,0.22,Wunderground v.1.15,2013-06-07 09:55:00,
2013-06-07 06:00:00,50.3,49.2,30.06,SE,144,1.0,1.0,96,0.05,,,0.22,Wunderground v.1.15,2013-06-07 10:00:00,
2013-06-07 06:05:00,50.1,49.0,30.06,SSE,154,1.0,1.0,96,0.05,,,0.22,Wunderground v.1.15,2013-06-07 10:05:00,
2013-06-07 06:10:00,49.9,48.8,30.06,SE,144,1.0,1.0,96,0.05,,,0.23,Wunderground v.1.15,2013-06-07 10:10:00,
2013-06-07 06:15:00,49.7,48.6,30.06,SSE,154,0.0,1.0,96,0.11,,,0.24,Wunderground v.1.15,2013-06-07 10:15:00,
2013-06-07 06:20:00,49.6,48.2,30.06,SE,140,0.0,0.0,95,0.12,,,0.25,Wunderground v.1.15,2013-06-07 10:20:00,
2013-06-07 06:25:00,49.6,48.5,30.06,SE,141,0.0,0.0,96,0.10,,,0.26,Wunderground v.1.15,2013-06-07 10:25:00,
2013-06-07 06:30:00,49.7,48.6,30.06,ESE,113,0.0,0.0,96,0.07,,,0.26,Wunderground v.1.15,2013-06-07 10:30:00,
2013-06-07 06:35:00,49.9,48.8,30.06,ESE,113,1.0,1.0,96,0.05,,,0.27,Wunderground v.1.15,2013-06-07 10:35:00,
2013-06-07 06:40:00,49.8,48.7,30.07,ESE,106,1.0,1.0,96,0.05,,,0.27,Wunderground v.1.15,2013-06-07 10:40:00,
2013-06-07 06:46:00,49.7,48.6,30.07,East,85,1.0,1.0,96,0.08,,,0.28,Wunderground v.1.15,2013-06-07 10:46:00,
2013-06-07 06:50:00,49.7,48.6,30.07,ENE,64,1.0,1.0,96,0.08,,,0.28,Wunderground v.1.15,2013-06-07 10:50:00,
2013-06-07 06:55:00,49.6,48.5,30.07,ENE,64,1.0,1.0,96,0.05,,,0.28,Wunderground v.1.15,2013-06-07 10:55:00,
2013-06-07 07:05:00,49.4,48.3,30.07,ENE,69,2.0,2.0,96,0.05,,,0.29,Wunderground v.1.15,2013-06-07 11:05:00,
2013-06-07 07:10:00,49.1,48.0,30.08,SE,130,2.0,2.0,96,0.04,,,0.29,Wunderground v.1.15,2013-06-07 11:10:00,
2013-06-07 07:15:00,49.0,47.9,30.07,NE,55,2.0,2.0,96,0.00,,,0.30,Wunderground v.1.15,2013-06-07 11:15:00,
2013-06-07 07:20:00,49.0,47.9,30.07,East,91,1.0,1.0,96,0.00,,,0.30,Wunderground v.1.15,2013-06-07 11:20:00,
2013-06-07 07:25:00,48.8,47.7,30.07,ESE,119,1.0,1.0,96,0.00,,,0.30,Wunderground v.1.15,2013-06-07 11:25:00,
2013-06-07 07:31:00,48.9,47.8,30.07,ENE,63,1.0,3.0,96,0.04,,,0.31,Wunderground v.1.15,2013-06-07 11:31:00,
2013-06-07 07:36:00,49.0,47.9,30.06,ENE,78,1.0,3.0,96,0.04,,,0.31,Wunderground v.1.15,2013-06-07 11:36:00,
2013-06-07 07:40:00,49.0,47.9,30.07,East,80,1.0,1.0,96,0.04,,,0.31,Wunderground v.1.15,2013-06-07 11:40:00,
2013-06-07 07:46:00,49.0,47.9,30.07,East,80,0.0,1.0,96,0.04,,,0.31,Wunderground v.1.15,2013-06-07 11:46:00,
2013-06-07 07:50:00,48.9,47.8,30.07,ESE,103,0.0,1.0,96,0.00,,,0.31,Wunderground v.1.15,2013-06-07 11:50:00,
2013-06-07 07:55:00,48.9,47.8,30.07,East,90,1.0,1.0,96,0.00,,,0.31,Wunderground v.1.15,2013-06-07 11:55:00,
2013-06-07 08:01:00,49.0,47.9,30.07,East,90,1.0,1.0,96,0.00,,,0.31,Wunderground v.1.15,2013-06-07 12:01:00,
2013-06-07 08:05:00,49.0,47.9,30.07,East,82,1.0,1.0,96,0.00,,,0.31,Wunderground v.1.15,2013-06-07 12:05:00,
2013-06-07 08:10:00,49.0,47.9,30.07,East,82,1.0,1.0,96,0.00,,,0.31,Wunderground v.1.15,2013-06-07 12:10:00,
2013-06-07 08:15:00,49.0,47.9,30.07,East,82,1.0,1.0,96,0.00,,,0.31,Wunderground v.1.15,2013-06-07 12:15:00,
2013-06-07 08:20:00,49.0,47.6,30.07,East,82,1.0,1.0,95,0.00,,,0.31,Wunderground v.1.15,2013-06-07 12:20:00,
2013-06-07 08:25:00,49.1,48.0,30.07,East,82,1.0,1.0,96,0.00,,,0.31,Wunderground v.1.15,2013-06-07 12:25:00,
2013-06-07 08:30:00,49.2,48.1,30.07,SE,126,0.0,3.0,96,0.00,,,0.31,Wunderground v.1.15,2013-06-07 12:30:00,
2013-06-07 08:35:00,49.1,47.7,30.08,SE,125,1.0,3.0,95,0.00,,,0.31,Wunderground v.1.15,2013-06-07 12:35:00,
2013-06-07 08:40:00,49.0,47.3,30.08,ESE,111,2.0,2.0,94,0.00,,,0.31,Wunderground v.1.15,2013-06-07 12:40:00,
2013-06-07 08:45:00,49.1,47.4,30.07,ESE,111,1.0,2.0,94,0.00,,,0.31,Wunderground v.1.15,2013-06-07 12:45:00,
2013-06-07 08:50:00,49.1,47.4,30.07,ESE,111,1.0,1.0,94,0.00,,,0.31,Wunderground v.1.15,2013-06-07 12:50:00,
2013-06-07 08:56:00,49.2,47.5,30.08,ESE,111,1.0,1.0,94,0.00,,,0.31,Wunderground v.1.15,2013-06-07 12:56:00,
2013-06-07 09:05:00,49.4,48.0,30.07,ESE,111,0.0,1.0,95,0.00,,,0.31,Wunderground v.1.15,2013-06-07 13:05:00,
2013-06-07 09:10:00,49.6,48.2,30.08,ESE,108,0.0,1.0,95,0.00,,,0.31,Wunderground v.1.15,2013-06-07 13:10:00,
2013-06-07 09:15:00,49.7,48.3,30.08,ESE,108,1.0,1.0,95,0.00,,,0.31,Wunderground v.1.15,2013-06-07 13:15:00,
2013-06-07 09:21:00,49.7,48.0,30.08,SE,128,1.0,2.0,94,0.00,,,0.31,Wunderground v.1.15,2013-06-07 13:21:00,
2013-06-07 09:30:00,49.7,48.0,30.08,East,97,1.0,5.0,94,0.00,,,0.32,Wunderground v.1.15,2013-06-07 13:30:00,
2013-06-07 09:35:00,49.9,48.5,30.08,ESE,105,1.0,5.0,95,0.00,,,0.32,Wunderground v.1.15,2013-06-07 13:35:00,
2013-06-07 09:40:00,49.8,48.1,30.08,SSE,150,1.0,2.0,94,0.00,,,0.32,Wunderground v.1.15,2013-06-07 13:40:00,
2013-06-07 09:46:00,49.9,48.2,30.08,East,92,1.0,2.0,94,0.00,,,0.32,Wunderground v.1.15,2013-06-07 13:46:00,
2013-06-07 09:55:00,50.1,48.4,30.08,ESE,123,1.0,2.0,94,0.00,,,0.32,Wunderground v.1.15,2013-06-07 13:55:00,
2013-06-07 10:00:00,49.9,48.0,30.08,SSE,152,2.0,3.0,93,0.00,,,0.32,Wunderground v.1.15,2013-06-07 14:00:00,
2013-06-07 10:06:00,49.9,48.0,30.08,SSE,148,3.0,3.0,93,0.00,,,0.32,Wunderground v.1.15,2013-06-07 14:06:00,
2013-06-07 10:10:00,50.1,48.4,30.08,ENE,69,2.0,2.0,94,0.00,,,0.32,Wunderground v.1.15,2013-06-07 14:10:00,
2013-06-07 10:16:00,50.3,48.6,30.08,ENE,61,1.0,2.0,94,0.00,,,0.32,Wunderground v.1.15,2013-06-07 14:16:00,
2013-06-07 10:21:00,50.4,48.7,30.08,ESE,116,0.0,1.0,94,0.00,,,0.33,Wunderground v.1.15,2013-06-07 14:21:00,
2013-06-07 10:25:00,50.3,48.4,30.08,ESE,117,0.0,1.0,93,0.00,,,0.33,Wunderground v.1.15,2013-06-07 14:25:00,
2013-06-07 10:36:00,50.3,48.6,30.08,NE,36,1.0,1.0,94,0.00,,,0.33,Wunderground v.1.15,2013-06-07 14:36:00,
2013-06-07 10:46:00,50.5,48.8,30.08,NE,51,1.0,1.0,94,0.00,,,0.33,Wunderground v.1.15,2013-06-07 14:46:00,
2013-06-07 10:51:00,50.8,49.1,30.07,East,82,1.0,1.0,94,0.00,,,0.34,Wunderground v.1.15,2013-06-07 14:51:00,
2013-06-07 11:00:00,50.9,49.2,30.07,SE,140,0.0,1.0,94,0.00,,,0.34,Wunderground v.1.15,2013-06-07 15:00:00,
2013-06-07 11:05:00,50.8,48.8,30.07,East,97,0.0,1.0,93,0.00,,,0.34,Wunderground v.1.15,2013-06-07 15:05:00,
2013-06-07 11:10:00,50.7,48.7,30.07,ESE,102,0.0,0.0,93,0.00,,,0.34,Wunderground v.1.15,2013-06-07 15:10:00,
2013-06-07 11:16:00,50.7,48.7,30.07,ESE,103,0.0,1.0,93,0.00,,,0.34,Wunderground v.1.15,2013-06-07 15:16:00,
2013-06-07 11:20:00,50.9,49.2,30.07,SE,125,1.0,1.0,94,0.00,,,0.35,Wunderground v.1.15,2013-06-07 15:20:00,
2013-06-07 11:25:00,50.7,48.7,30.07,East,98,1.0,1.0,93,0.09,,,0.36,Wunderground v.1.15,2013-06-07 15:25:00,
2013-06-07 11:35:00,50.8,49.1,30.07,East,80,1.0,1.0,94,0.05,,,0.36,Wunderground v.1.15,2013-06-07 15:35:00,
2013-06-07 11:40:00,50.8,48.8,30.06,SE,140,0.0,1.0,93,0.04,,,0.36,Wunderground v.1.15,2013-06-07 15:40:00,
2013-06-07 11:45:00,50.8,49.1,30.07,East,80,0.0,0.0,94,0.00,,,0.36,Wunderground v.1.15,2013-06-07 15:45:00,
2013-06-07 11:50:00,51.0,49.3,30.06,SE,125,0.0,0.0,94,0.00,,,0.37,Wunderground v.1.15,2013-06-07 15:50:00,
2013-06-07 11:55:00,51.3,49.6,30.06,NE,39,0.0,0.0,94,0.00,,,0.37,Wunderground v.1.15,2013-06-07 15:55:00,
2013-06-07 12:00:00,51.7,50.0,30.06,SE,134,0.0,0.0,94,0.00,,,0.37,Wunderground v.1.15,2013-06-07 16:00:00,
2013-06-07 12:06:00,51.3,49.3,30.06,SE,132,0.0,1.0,93,0.00,,,0.37,Wunderground v.1.15,2013-06-07 16:06:00,
2013-06-07 12:10:00,51.2,49.2,30.06,East,79,1.0,1.0,93,0.00,,,0.37,Wunderground v.1.15,2013-06-07 16:10:00,
2013-06-07 12:15:00,51.5,49.5,30.06,SE,141,1.0,1.0,93,0.00,,,0.37,Wunderground v.1.15,2013-06-07 16:15:00,
2013-06-07 12:20:00,51.7,50.0,30.05,SE,127,1.0,1.0,94,0.00,,,0.37,Wunderground v.1.15,2013-06-07 16:20:00,
2013-06-07 12:26:00,51.8,49.8,30.06,East,80,1.0,1.0,93,0.00,,,0.37,Wunderground v.1.15,2013-06-07 16:26:00,
2013-06-07 12:31:00,51.6,49.6,30.05,ESE,119,2.0,2.0,93,0.00,,,0.37,Wunderground v.1.15,2013-06-07 16:31:00,
2013-06-07 12:45:00,51.4,49.4,30.05,East,95,4.0,4.0,93,0.00,,,0.37,Wunderground v.1.15,2013-06-07 16:45:00,
2013-06-07 12:50:00,51.3,49.3,30.05,SE,128,3.0,4.0,93,0.00,,,0.37,Wunderground v.1.15,2013-06-07 16:50:00,
2013-06-07 13:00:00,51.4,49.7,30.05,East,93,3.0,3.0,94,0.00,,,0.37,Wunderground v.1.15,2013-06-07 17:00:00,
2013-06-07 13:05:00,51.5,49.8,30.04,East,92,2.0,3.0,94,0.00,,,0.37,Wunderground v.1.15,2013-06-07 17:05:00,
2013-06-07 13:10:00,51.5,49.8,30.04,ESE,102,1.0,1.0,94,0.00,,,0.38,Wunderground v.1.15,2013-06-07 17:10:00,
2013-06-07 13:16:00,51.5,49.8,30.04,ESE,109,1.0,1.0,94,0.00,,,0.38,Wunderground v.1.15,2013-06-07 17:16:00,
2013-06-07 13:25:00,51.4,49.7,30.04,SE,131,0.0,0.0,94,0.00,,,0.38,Wunderground v.1.15,2013-06-07 17:25:00,
2013-06-07 13:30:00,51.3,49.9,30.04,East,81,0.0,0.0,95,0.00,,,0.38,Wunderground v.1.15,2013-06-07 17:30:00,
2013-06-07 13:35:00,51.4,50.0,30.04,ENE,57,0.0,1.0,95,0.00,,,0.38,Wunderground v.1.15,2013-06-07 17:35:00,
2013-06-07 13:40:00,51.6,50.2,30.04,ENE,78,0.0,1.0,95,0.00,,,0.38,Wunderground v.1.15,2013-06-07 17:40:00,
2013-06-07 13:45:00,51.8,50.4,30.04,East,82,0.0,0.0,95,0.00,,,0.38,Wunderground v.1.15,2013-06-07 17:45:00,
2013-06-07 13:51:00,51.9,50.5,30.04,NE,45,1.0,1.0,95,0.00,,,0.38,Wunderground v.1.15,2013-06-07 17:51:00,
2013-06-07 13:56:00,52.0,50.6,30.03,ENE,57,1.0,1.0,95,0.00,,,0.39,Wunderground v.1.15,2013-06-07 17:56:00,
2013-06-07 14:05:00,51.8,50.4,30.03,NE,54,1.0,1.0,95,0.00,,,0.39,Wunderground v.1.15,2013-06-07 18:05:00,
2013-06-07 14:11:00,51.6,50.2,30.03,SE,131,1.0,1.0,95,0.00,,,0.39,Wunderground v.1.15,2013-06-07 18:11:00,
2013-06-07 14:20:00,51.5,50.1,30.03,SSE,151,1.0,1.0,95,0.00,,,0.39,Wunderground v.1.15,2013-06-07 18:20:00,
2013-06-07 14:40:00,51.9,50.8,30.03,SSE,150,1.0,1.0,96,0.00,,,0.39,Wunderground v.1.15,2013-06-07 18:40:00,
2013-06-07 14:55:00,52.0,50.6,30.03,ESE,113,1.0,1.0,95,0.00,,,0.39,Wunderground v.1.15,2013-06-07 18:55:00,
2013-06-07 15:00:00,52.1,51.0,30.03,SSE,147,0.0,0.0,96,0.00,,,0.39,Wunderground v.1.15,2013-06-07 19:00:00,
2013-06-07 15:05:00,52.1,50.7,30.04,ESE,121,0.0,0.0,95,0.00,,,0.39,Wunderground v.1.15,2013-06-07 19:05:00,
2013-06-07 15:10:00,52.1,50.7,30.03,East,96,0.0,0.0,95,0.00,,,0.39,Wunderground v.1.15,2013-06-07 19:10:00,
2013-06-07 15:16:00,52.3,50.9,30.03,ESE,107,0.0,1.0,95,0.00,,,0.40,Wunderground v.1.15,2013-06-07 19:16:00,
2013-06-07 15:21:00,52.4,51.0,30.03,NE,51,1.0,1.0,95,0.00,,,0.40,Wunderground v.1.15,2013-06-07 19:21:00,
2013-06-07 15:25:00,52.3,50.9,30.03,SE,132,1.0,1.0,95,0.00,,,0.40,Wunderground v.1.15,2013-06-07 19:25:00,
2013-06-07 15:40:00,52.6,51.2,30.03,ESE,102,0.0,1.0,95,0.00,,,0.40,Wunderground v.1.15,2013-06-07 19:40:00,
2013-06-07 15:45:00,52.5,51.1,30.03,East,87,0.0,0.0,95,0.00,,,0.40,Wunderground v.1.15,2013-06-07 19:45:00,
2013-06-07 15:50:00,52.4,51.0,30.02,ESE,122,0.0,0.0,95,0.00,,,0.40,Wunderground v.1.15,2013-06-07 19:50:00,
2013-06-07 15:55:00,52.3,51.2,30.02,SE,128,0.0,1.0,96,0.00,,,0.40,Wunderground v.1.15,2013-06-07 19:55:00,
2013-06-07 16:00:00,52.2,50.8,30.02,ESE,113,0.0,1.0,95,0.00,,,0.40,Wunderground v.1.15,2013-06-07 20:00:00,
2013-06-07 16:05:00,52.3,50.9,30.02,SE,142,0.0,1.0,95,0.00,,,0.40,Wunderground v.1.15,2013-06-07 20:05:00,
2013-06-07 16:10:00,52.1,50.7,30.02,SE,144,0.0,0.0,95,0.00,,,0.40,Wunderground v.1.15,2013-06-07 20:10:00,
2013-06-07 16:21:00,52.0,50.6,30.02,ESE,111,0.0,0.0,95,0.00,,,0.40,Wunderground v.1.15,2013-06-07 20:21:00,
2013-06-07 16:30:00,51.9,50.5,30.01,SSE,155,0.0,0.0,95,0.00,,,0.40,Wunderground v.1.15,2013-06-07 20:30:00,
2013-06-07 16:36:00,51.8,50.4,30.01,ESE,109,0.0,0.0,95,0.00,,,0.40,Wunderground v.1.15,2013-06-07 20:36:00,
2013-06-07 16:45:00,51.9,50.5,30.01,SSE,155,0.0,1.0,95,0.00,,,0.40,Wunderground v.1.15,2013-06-07 20:45:00,
2013-06-07 16:50:00,52.1,50.7,30.01,ESE,123,0.0,0.0,95,0.00,,,0.40,Wunderground v.1.15,2013-06-07 20:50:00,
2013-06-07 16:56:00,51.9,50.5,30.01,SE,128,0.0,0.0,95,0.00,,,0.40,Wunderground v.1.15,2013-06-07 20:56:00,
2013-06-07 17:00:00,51.9,50.5,30.01,SE,137,0.0,1.0,95,0.00,,,0.40,Wunderground v.1.15,2013-06-07 21:00:00,
2013-06-07 17:10:00,51.8,50.4,30.00,ESE,120,0.0,0.0,95,0.00,,,0.40,Wunderground v.1.15,2013-06-07 21:10:00,
2013-06-07 17:15:00,51.8,50.4,30.00,ESE,120,0.0,0.0,95,0.00,,,0.40,Wunderground v.1.15,2013-06-07 21:15:00,
2013-06-07 17:20:00,51.8,50.4,30.00,ESE,119,0.0,0.0,95,0.00,,,0.40,Wunderground v.1.15,2013-06-07 21:20:00,
2013-06-07 17:30:00,51.8,50.1,30.00,SE,146,0.0,0.0,94,0.00,,,0.40,Wunderground v.1.15,2013-06-07 21:30:00,
2013-06-07 17:36:00,51.8,50.4,29.99,East,90,0.0,1.0,95,0.00,,,0.40,Wunderground v.1.15,2013-06-07 21:36:00,
2013-06-07 17:41:00,51.8,50.4,29.99,SE,124,0.0,0.0,95,0.00,,,0.40,Wunderground v.1.15,2013-06-07 21:41:00,
2013-06-07 17:45:00,51.8,50.4,29.99,SE,130,0.0,1.0,95,0.00,,,0.40,Wunderground v.1.15,2013-06-07 21:45:00,
2013-06-07 17:50:00,51.6,50.2,29.99,ESE,106,0.0,0.0,95,0.00,,,0.41,Wunderground v.1.15,2013-06-07 21:50:00,
2013-06-07 18:01:00,51.6,50.2,29.99,NE,42,0.0,0.0,95,0.00,,,0.41,Wunderground v.1.15,2013-06-07 22:01:00,
2013-06-07 18:06:00,51.6,50.2,29.99,SSE,152,0.0,0.0,95,0.00,,,0.41,Wunderground v.1.15,2013-06-07 22:06:00,
2013-06-07 18:10:00,51.5,50.1,29.99,SE,146,0.0,0.0,95,0.00,,,0.41,Wunderground v.1.15,2013-06-07 22:10:00,
2013-06-07 18:15:00,51.5,50.1,29.99,SE,137,0.0,0.0,95,0.00,,,0.41,Wunderground v.1.15,2013-06-07 22:15:00,
2013-06-07 18:21:00,51.4,50.0,29.99,SE,136,0.0,0.0,95,0.00,,,0.42,Wunderground v.1.15,2013-06-07 22:21:00,
2013-06-07 18:26:00,51.3,49.9,29.99,SE,142,0.0,0.0,95,0.00,,,0.42,Wunderground v.1.15,2013-06-07 22:26:00,
2013-06-07 18:30:00,51.5,50.1,29.99,SSE,153,0.0,0.0,95,0.00,,,0.42,Wunderground v.1.15,2013-06-07 22:30:00,
2013-06-07 18:36:00,51.4,50.0,29.99,SSE,154,0.0,0.0,95,0.05,,,0.43,Wunderground v.1.15,2013-06-07 22:36:00,
2013-06-07 18:45:00,51.4,50.0,29.99,SSE,152,0.0,1.0,95,0.04,,,0.43,Wunderground v.1.15,2013-06-07 22:45:00,
2013-06-07 18:50:00,51.4,50.0,29.99,SSE,152,0.0,0.0,95,0.00,,,0.44,Wunderground v.1.15,2013-06-07 22:50:00,
2013-06-07 18:55:00,51.3,49.9,29.99,SSE,152,0.0,0.0,95,0.00,,,0.44,Wunderground v.1.15,2013-06-07 22:55:00,
2013-06-07 19:00:00,51.3,49.9,29.99,SSE,152,0.0,0.0,95,0.00,,,0.44,Wunderground v.1.15,2013-06-07 23:00:00,
2013-06-07 19:05:00,51.3,49.9,29.99,SSE,152,0.0,0.0,95,0.00,,,0.44,Wunderground v.1.15,2013-06-07 23:05:00,
2013-06-07 19:10:00,51.3,49.9,29.99,SSE,151,0.0,0.0,95,0.00,,,0.44,Wunderground v.1.15,2013-06-07 23:10:00,
2013-06-07 19:25:00,51.1,50.0,29.99,SSE,150,0.0,0.0,96,0.14,,,0.49,Wunderground v.1.15,2013-06-07 23:25:00,
2013-06-07 19:30:00,51.0,49.9,29.98,SSE,150,0.0,0.0,96,0.15,,,0.50,Wunderground v.1.15,2013-06-07 23:30:00,
2013-06-07 19:36:00,50.9,49.5,29.99,SE,144,0.0,0.0,95,0.09,,,0.50,Wunderground v.1.15,2013-06-07 23:36:00,
2013-06-07 19:40:00,50.9,49.8,29.99,SE,144,0.0,0.0,96,0.08,,,0.51,Wunderground v.1.15,2013-06-07 23:40:00,
2013-06-07 19:55:00,50.7,49.6,29.98,SE,132,0.0,0.0,96,0.05,,,0.52,Wunderground v.1.15,2013-06-07 23:55:00,
2013-06-07 20:00:00,50.7,49.6,29.98,SSE,147,0.0,0.0,96,0.04,,,0.53,Wunderground v.1.15,2013-06-08 00:00:00,
2013-06-07 20:05:00,50.7,49.6,29.98,SE,142,0.0,0.0,96,0.04,,,0.53,Wunderground v.1.15,2013-06-08 00:05:00,
2013-06-07 20:10:00,50.7,49.6,29.98,SE,143,0.0,0.0,96,0.04,,,0.53,Wunderground v.1.15,2013-06-08 00:10:00,
2013-06-07 20:15:00,50.7,49.6,29.97,SE,144,0.0,0.0,96,0.04,,,0.54,Wunderground v.1.15,2013-06-08 00:15:00,
2013-06-07 20:20:00,50.6,49.5,29.97,SE,143,0.0,0.0,96,0.04,,,0.54,Wunderground v.1.15,2013-06-08 00:20:00,
2013-06-07 20:25:00,50.6,49.5,29.97,SE,143,0.0,0.0,96,0.04,,,0.54,Wunderground v.1.15,2013-06-08 00:25:00,
2013-06-07 20:35:00,50.6,49.5,29.97,ESE,113,0.0,0.0,96,0.09,,,0.56,Wunderground v.1.15,2013-06-08 00:35:00,
2013-06-07 20:45:00,50.5,49.4,29.97,ESE,115,0.0,0.0,96,0.06,,,0.56,Wunderground v.1.15,2013-06-08 00:45:00,
2013-06-07 20:50:00,50.5,49.4,29.96,ESE,115,0.0,0.0,96,0.04,,,0.57,Wunderground v.1.15,2013-06-08 00:50:00,
2013-06-07 20:55:00,50.5,49.4,29.96,SE,146,0.0,0.0,96,0.04,,,0.57,Wunderground v.1.15,2013-06-08 00:55:00,
2013-06-07 21:00:00,50.5,49.4,29.96,SE,146,0.0,0.0,96,0.08,,,0.58,Wunderground v.1.15,2013-06-08 01:00:00,
2013-06-07 21:05:00,50.5,49.4,29.96,SE,146,0.0,0.0,96,0.08,,,0.58,Wunderground v.1.15,2013-06-08 01:05:00,
2013-06-07 21:10:00,50.6,49.8,29.96,SE,146,0.0,0.0,97,0.05,,,0.58,Wunderground v.1.15,2013-06-08 01:10:00,
2013-06-07 21:15:00,50.6,49.8,29.96,SE,146,0.0,0.0,97,0.04,,,0.59,Wunderground v.1.15,2013-06-08 01:15:00,
2013-06-07 21:21:00,50.6,49.8,29.96,SE,146,0.0,0.0,97,0.04,,,0.59,Wunderground v.1.15,2013-06-08 01:21:00,
2013-06-07 21:25:00,50.6,49.8,29.96,SE,146,0.0,0.0,97,0.05,,,0.60,Wunderground v.1.15,2013-06-08 01:25:00,
2013-06-07 21:35:00,50.5,49.7,29.95,SE,146,0.0,0.0,97,0.05,,,0.60,Wunderground v.1.15,2013-06-08 01:35:00,
2013-06-07 21:45:00,50.5,49.4,29.95,SE,146,0.0,0.0,96,0.04,,,0.61,Wunderground v.1.15,2013-06-08 01:45:00,
2013-06-07 21:56:00,50.5,49.7,29.95,SE,146,0.0,0.0,97,0.06,,,0.62,Wunderground v.1.15,2013-06-08 01:56:00,
2013-06-07 22:01:00,50.5,49.7,29.95,SE,146,0.0,0.0,97,0.05,,,0.62,Wunderground v.1.15,2013-06-08 02:01:00,
2013-06-07 22:05:00,50.5,49.7,29.95,SE,146,0.0,0.0,97,0.04,,,0.63,Wunderground v.1.15,2013-06-08 02:05:00,
2013-06-07 22:11:00,50.5,49.7,29.95,SE,146,0.0,0.0,97,0.04,,,0.63,Wunderground v.1.15,2013-06-08 02:11:00,
2013-06-07 22:15:00,50.5,49.7,29.94,SE,146,0.0,0.0,97,0.06,,,0.64,Wunderground v.1.15,2013-06-08 02:15:00,
2013-06-07 22:20:00,50.5,49.7,29.94,SE,146,0.0,0.0,97,0.06,,,0.64,Wunderground v.1.15,2013-06-08 02:20:00,
2013-06-07 22:26:00,50.5,49.7,29.94,SE,146,0.0,0.0,97,0.06,,,0.65,Wunderground v.1.15,2013-06-08 02:26:00,
2013-06-07 22:40:00,50.3,49.5,29.93,SE,146,0.0,0.0,97,0.06,,,0.66,Wunderground v.1.15,2013-06-08 02:40:00,
2013-06-07 22:51:00,50.3,49.5,29.93,SE,146,0.0,0.0,97,0.00,,,0.67,Wunderground v.1.15,2013-06-08 02:51:00,
2013-06-07 22:56:00,50.3,49.5,29.93,SE,146,0.0,0.0,97,0.00,,,0.67,Wunderground v.1.15,2013-06-08 02:56:00,
2013-06-07 23:00:00,50.3,49.5,29.93,SE,146,0.0,0.0,97,0.06,,,0.68,Wunderground v.1.15,2013-06-08 03:00:00,
2013-06-07 23:11:00,50.3,49.5,29.93,SE,146,0.0,0.0,97,0.05,,,0.68,Wunderground v.1.15,2013-06-08 03:11:00,
2013-06-07 23:15:00,50.3,49.5,29.92,SE,146,0.0,0.0,97,0.00,,,0.68,Wunderground v.1.15,2013-06-08 03:15:00,
2013-06-07 23:20:00,50.3,49.5,29.92,SE,146,0.0,0.0,97,0.00,,,0.68,Wunderground v.1.15,2013-06-08 03:20:00,
2013-06-07 23:25:00,50.3,49.5,29.92,SE,146,0.0,0.0,97,0.00,,,0.69,Wunderground v.1.15,2013-06-08 03:25:00,
2013-06-07 23:30:00,50.3,49.5,29.92,SE,146,0.0,0.0,97,0.00,,,0.69,Wunderground v.1.15,2013-06-08 03:30:00,
2013-06-07 23:35:00,50.2,49.4,29.92,SE,146,0.0,0.0,97,0.00,,,0.69,Wunderground v.1.15,2013-06-08 03:35:00,
2013-06-07 23:50:00,50.1,49.3,29.91,SE,146,0.0,0.0,97,0.00,,,0.69,Wunderground v.1.15,2013-06-08 03:50:00,
2013-06-07 23:55:00,50.1,49.3,29.91,SE,146,0.0,0.0,97,0.00,,,0.69,Wunderground v.1.15,2013-06-08 03:55:00,